N0SWP-3 Weather Reports


Display with metric or nautical units.
time (UTC)temp
F
wind
direction
speed
MPH
gust
MPH
rain 1hr
in
rain 24hr
in
rain mn
in
humidity
%
barometer
mb
20260906180903 100 160 1.0 6.0 0.00 0.00 0.00 44 1014.7
20260906180603 100 155 2.0 6.0 0.00 0.00 0.00 44 1014.7
20260906180303 100 160 1.0 5.0 0.00 0.00 0.00 45 1014.7
20260906180003 100 160 1.0 5.0 0.00 0.00 0.00 45 1014.8
20260906175703 100 165 1.0 5.0 0.00 0.00 0.00 45 1014.8
20260906175617 100 167 0.0 2.0 0.00 0.00 0.00 46 1014.8
20260906175103 99 171 1.0 3.0 0.00 0.00 0.00 47 1015.0
20260906174803 99 175 1.0 3.0 0.00 0.00 0.00 47 1015.0
20260906174503 99 172 1.0 3.0 0.00 0.00 0.00 47 1015.1
20260906174203 100 174 1.0 3.0 0.00 0.00 0.00 47 1015.1
20260906173903 99 173 1.0 4.0 0.00 0.00 0.00 48 1015.1
20260906173603 99 179 1.0 4.0 0.00 0.00 0.00 47 1015.2
20260906173303 99 170 1.0 4.0 0.00 0.00 0.00 47 1015.2
20260906173003 99 155 1.0 4.0 0.00 0.00 0.00 48 1015.3
20260906172703 98 156 1.0 4.0 0.00 0.00 0.00 48 1015.3
20260906172403 98 160 1.0 4.0 0.00 0.00 0.00 47 1015.4
20260906172103 98 190 1.0 4.0 0.00 0.00 0.00 47 1015.5
20260906171803 98 194 1.0 4.0 0.00 0.00 0.00 49 1015.5
20260906171503 98 188 1.0 4.0 0.00 0.00 0.00 49 1015.6
20260906171203 98 178 1.0 4.0 0.00 0.00 0.00 48 1015.6
20260906171118 98 171 1.0 4.0 0.00 0.00 0.00 48 1015.6
20260906170603 98 169 1.0 4.0 0.00 0.00 0.00 49 1015.7
20260906170303 98 170 0.0 3.0 0.00 0.00 0.00 49 1015.8
20260906170003 98 173 0.0 3.0 0.00 0.00 0.00 49 1015.8
20260906165917 98 173 0.0 3.0 0.00 0.00 0.00 49 1015.8
20260906165403 98 204 0.0 2.0 0.00 0.00 0.00 50 1015.9
20260906165103 97 179 0.0 2.0 0.00 0.00 0.00 51 1015.9
20260906165017 97 179 0.0 2.0 0.00 0.00 0.00 51 1015.9
20260906164503 97 160 0.0 2.0 0.00 0.00 0.00 51 1015.9
20260906164203 97 147 0.0 3.0 0.00 0.00 0.00 51 1015.9
20260906163903 97 151 0.0 3.0 0.00 0.00 0.00 50 1016.0
20260906163603 97 162 0.0 3.0 0.00 0.00 0.00 50 1016.0
20260906163517 97 169 1.0 3.0 0.00 0.00 0.00 50 1016.0
20260906163003 97 178 1.0 4.0 0.00 0.00 0.00 51 1016.1
20260906162703 98 168 2.0 4.0 0.00 0.00 0.00 50 1016.0
20260906162403 98 155 1.0 4.0 0.00 0.00 0.00 50 1016.1
20260906162103 98 150 1.0 4.0 0.00 0.00 0.00 50 1016.1
20260906161803 99 161 0.0 2.0 0.00 0.00 0.00 50 1016.0
20260906161503 98 165 1.0 2.0 0.00 0.00 0.00 52 1016.0
20260906161203 98 164 1.0 2.0 0.00 0.00 0.00 52 1016.0
20260906160903 97 170 1.0 2.0 0.00 0.00 0.00 52 1016.0
20260906160818 97 169 1.0 5.0 0.00 0.00 0.00 52 1016.0
20260906160303 95 159 1.0 5.0 0.00 0.00 0.00 55 1016.0
20260906160003 95 154 1.0 5.0 0.00 0.00 0.00 55 1016.1
20260906155703 94 151 1.0 5.0 0.00 0.00 0.00 56 1016.0
20260906155403 94 159 1.0 6.0 0.00 0.00 0.00 56 1016.0
20260906155103 94 165 1.0 6.0 0.00 0.00 0.00 58 1015.9
20260906154803 93 162 1.0 6.0 0.00 0.00 0.00 58 1015.9
20260906154503 93 160 1.0 6.0 0.00 0.00 0.00 57 1015.9
20260906154203 93 178 1.0 2.0 0.00 0.00 0.00 58 1015.8
20260906153903 92 180 1.0 2.0 0.00 0.00 0.00 60 1015.8
20260906153603 91 182 1.0 2.0 0.00 0.00 0.00 61 1015.8
20260906153303 91 178 0.0 2.0 0.00 0.00 0.00 62 1015.7
20260906153217 91 172 1.0 2.0 0.00 0.00 0.00 62 1015.7
20260906152917 90 161 1.0 3.0 0.00 0.00 0.00 63 1015.7
20260906152403 90 153 0.0 3.0 0.00 0.00 0.00 62 1015.8
20260906152103 91 171 0.0 1.0 0.00 0.00 0.00 63 1015.7
20260906151803 90 166 0.0 3.0 0.00 0.00 0.00 63 1015.7
20260906151504 90 164 1.0 4.0 0.00 0.00 0.00 63 1015.7
20260906151203 90 163 1.0 4.0 0.00 0.00 0.00 64 1015.6
20260906150903 89 160 1.0 4.0 0.00 0.00 0.00 65 1015.6
20260906150603 89 155 2.0 5.0 0.00 0.00 0.00 65 1015.6
20260906150517 89 152 1.0 5.0 0.00 0.00 0.00 65 1015.6
20260906150217 88 147 1.0 5.0 0.00 0.00 0.00 65 1015.6
20260906145703 88 142 1.0 5.0 0.00 0.00 0.00 66 1015.6
20260906145403 88 142 1.0 5.0 0.00 0.00 0.00 66 1015.6
20260906145103 88 144 0.0 5.0 0.00 0.00 0.00 67 1015.6
20260906145018 88 160 0.0 2.0 0.00 0.00 0.00 67 1015.7
20260906144718 87 142 1.0 3.0 0.00 0.00 0.00 68 1015.7
20260906144203 86 144 1.0 3.0 0.00 0.00 0.00 69 1015.7
20260906143903 86 146 1.0 3.0 0.00 0.00 0.00 68 1015.8
20260906143603 86 150 1.0 3.0 0.00 0.00 0.00 69 1015.8
20260906143303 86 152 1.0 3.0 0.00 0.00 0.00 68 1015.8
20260906143217 86 154 1.0 3.0 0.00 0.00 0.00 69 1015.8
20260906142918 86 160 1.0 3.0 0.00 0.00 0.00 69 1015.7
20260906142618 85 157 1.0 3.0 0.00 0.00 0.00 71 1015.7
20260906142103 85 161 1.0 3.0 0.00 0.00 0.00 71 1015.7
20260906142018 85 161 1.0 3.0 0.00 0.00 0.00 71 1015.7
20260906141503 84 167 1.0 3.0 0.00 0.00 0.00 72 1015.7
20260906141417 84 158 1.0 3.0 0.00 0.00 0.00 72 1015.7
20260906141117 84 146 1.0 4.0 0.00 0.00 0.00 74 1015.7
20260906140603 82 153 2.0 4.0 0.00 0.00 0.00 75 1015.6
20260906140303 82 157 1.0 4.0 0.00 0.00 0.00 75 1015.6
20260906140003 82 160 1.0 4.0 0.00 0.00 0.00 75 1015.5
20260906135703 82 156 1.0 3.0 0.00 0.00 0.00 76 1015.6
20260906135403 81 153 1.0 5.0 0.00 0.00 0.00 77 1015.5
20260906135103 81 149 2.0 5.0 0.00 0.00 0.00 77 1015.6
20260906134803 81 150 2.0 5.0 0.00 0.00 0.00 77 1015.6
20260906134503 81 150 1.0 5.0 0.00 0.00 0.00 77 1015.5
20260906134203 80 156 1.0 3.0 0.00 0.00 0.00 78 1015.5
20260906133903 80 155 1.0 3.0 0.00 0.00 0.00 78 1015.5
20260906133817 80 154 1.0 3.0 0.00 0.00 0.00 79 1015.5
20260906133303 79 149 0.0 3.0 0.00 0.00 0.00 80 1015.4
20260906133003 79 0 0.0 0.0 0.00 0.00 0.00 81 1015.3
20260906132918 79 0 0.0 0.0 0.00 0.00 0.00 81 1015.3
20260906132403 78 0 0.0 0.0 0.00 0.00 0.00 83 1015.2
20260906132103 77 0 0.0 0.0 0.00 0.00 0.00 84 1015.1
20260906131803 77 0 0.0 0.0 0.00 0.00 0.00 85 1015.1
20260906131503 76 0 0.0 0.0 0.00 0.00 0.00 86 1015.1
20260906131203 76 0 0.0 0.0 0.00 0.00 0.00 87 1015.1
20260906130903 76 0 0.0 0.0 0.00 0.00 0.00 87 1015.1
20260906130603 75 0 0.0 0.0 0.00 0.00 0.00 89 1015.2
20260906130303 75 0 0.0 0.0 0.00 0.00 0.00 89 1015.2
20260906130003 74 0 0.0 0.0 0.00 0.00 0.00 90 1015.1
20260906125703 74 0 0.0 0.0 0.00 0.00 0.00 90 1015.1
20260906125403 74 0 0.0 0.0 0.00 0.00 0.00 91 1015.0
20260906125317 74 0 0.0 0.0 0.00 0.00 0.00 91 1015.0
20260906124803 74 0 0.0 0.0 0.00 0.00 0.00 91 1014.9
20260906124503 74 0 0.0 0.0 0.00 0.00 0.00 91 1014.9
20260906124203 73 0 0.0 0.0 0.00 0.00 0.00 91 1014.9
20260906123903 73 0 0.0 0.0 0.00 0.00 0.00 92 1014.9
20260906123818 73 0 0.0 0.0 0.00 0.00 0.00 91 1014.9
20260906123303 73 0 0.0 0.0 0.00 0.00 0.00 92 1014.9
20260906123003 73 0 0.0 0.0 0.00 0.00 0.00 91 1014.8
20260906122917 73 0 0.0 0.0 0.00 0.00 0.00 91 1014.8
20260906122403 73 0 0.0 0.0 0.00 0.00 0.00 91 1014.7
20260906122103 73 0 0.0 0.0 0.00 0.00 0.00 91 1014.7
20260906122017 73 0 0.0 0.0 0.00 0.00 0.00 91 1014.7
20260906121503 73 0 0.0 0.0 0.00 0.00 0.00 90 1014.6
20260906121203 73 0 0.0 0.0 0.00 0.00 0.00 90 1014.5
20260906120903 73 0 0.0 0.0 0.00 0.00 0.00 90 1014.5
20260906120603 73 0 0.0 0.0 0.00 0.00 0.00 90 1014.5
20260906120303 73 0 0.0 0.0 0.00 0.00 0.00 90 1014.5
20260906120218 73 0 0.0 0.0 0.00 0.00 0.00 90 1014.5
20260906115703 73 0 0.0 0.0 0.00 0.00 0.00 90 1014.5
20260906115403 73 0 0.0 0.0 0.00 0.00 0.00 91 1014.5
20260906115103 73 0 0.0 0.0 0.00 0.00 0.00 90 1014.5
20260906115017 73 0 0.0 0.0 0.00 0.00 0.00 90 1014.5
20260906114503 73 0 0.0 0.0 0.00 0.00 0.00 90 1014.4
20260906114203 73 0 0.0 0.0 0.00 0.00 0.00 90 1014.4
20260906113903 73 0 0.0 0.0 0.00 0.00 0.00 90 1014.4
20260906113603 73 0 0.0 0.0 0.00 0.00 0.00 90 1014.4
20260906113303 73 0 0.0 0.0 0.00 0.00 0.00 90 1014.4
20260906113003 73 0 0.0 0.0 0.00 0.00 0.00 90 1014.4
20260906112917 73 0 0.0 0.0 0.00 0.00 0.00 90 1014.4
20260906112403 73 0 0.0 0.0 0.00 0.00 0.00 90 1014.3
20260906112103 74 0 0.0 0.0 0.00 0.00 0.00 90 1014.3
20260906111803 74 0 0.0 0.0 0.00 0.00 0.00 90 1014.3
20260906111503 74 0 0.0 0.0 0.00 0.00 0.00 90 1014.3
20260906111203 74 0 0.0 0.0 0.00 0.00 0.00 89 1014.4
20260906110903 74 0 0.0 0.0 0.00 0.00 0.00 89 1014.4
20260906110603 74 0 0.0 0.0 0.00 0.00 0.00 88 1014.3
20260906110303 74 0 0.0 0.0 0.00 0.00 0.00 88 1014.4
20260906110217 74 0 0.0 0.0 0.00 0.00 0.00 88 1014.4
20260906105917 74 0 0.0 0.0 0.00 0.00 0.00 88 1014.4
20260906105617 74 0 0.0 0.0 0.00 0.00 0.00 87 1014.4
20260906105103 74 0 0.0 0.0 0.00 0.00 0.00 86 1014.3
20260906104803 75 0 0.0 0.0 0.00 0.00 0.00 86 1014.4
20260906104503 75 0 0.0 0.0 0.00 0.00 0.00 86 1014.4
20260906104203 75 0 0.0 0.0 0.00 0.00 0.00 86 1014.3
20260906103903 75 0 0.0 0.0 0.00 0.00 0.00 85 1014.3
20260906103603 75 0 0.0 0.0 0.00 0.00 0.00 85 1014.3
20260906103303 75 0 0.0 0.0 0.00 0.00 0.00 85 1014.4
20260906103003 75 0 0.0 0.0 0.00 0.00 0.00 85 1014.3
20260906102703 75 0 0.0 0.0 0.00 0.00 0.00 85 1014.3
20260906102403 75 0 0.0 0.0 0.00 0.00 0.00 85 1014.3
20260906102103 75 0 0.0 0.0 0.00 0.00 0.00 86 1014.2
20260906101803 75 0 0.0 0.0 0.00 0.00 0.00 86 1014.2
20260906101503 75 0 0.0 0.0 0.00 0.00 0.00 86 1014.2
20260906101203 75 0 0.0 0.0 0.00 0.00 0.00 87 1014.2
20260906101118 74 0 0.0 0.0 0.00 0.00 0.00 87 1014.2
20260906100817 74 0 0.0 0.0 0.00 0.00 0.00 87 1014.2
20260906100303 74 0 0.0 0.0 0.00 0.00 0.00 87 1014.1
20260906100003 74 0 0.0 0.0 0.00 0.00 0.00 87 1014.1
20260906095703 74 0 0.0 0.0 0.00 0.00 0.00 88 1014.1
20260906095404 74 0 0.0 0.0 0.00 0.00 0.00 88 1014.1
20260906095103 75 0 0.0 0.0 0.00 0.00 0.00 88 1014.1
20260906095018 75 0 0.0 0.0 0.00 0.00 0.00 88 1014.1
20260906094504 74 0 0.0 0.0 0.00 0.00 0.00 88 1014.1
20260906094203 75 0 0.0 0.0 0.00 0.00 0.00 88 1014.1
20260906093903 75 0 0.0 0.0 0.00 0.00 0.00 87 1014.0
20260906093603 75 0 0.0 0.0 0.00 0.00 0.00 87 1014.0
20260906093303 75 0 0.0 0.0 0.00 0.00 0.00 87 1014.0
20260906093004 75 0 0.0 0.0 0.00 0.00 0.00 87 1013.9
20260906092703 75 0 0.0 0.0 0.00 0.00 0.00 87 1013.9
20260906092403 75 0 0.0 0.0 0.00 0.00 0.00 87 1013.9
20260906092103 75 0 0.0 0.0 0.00 0.00 0.00 87 1013.9
20260906091803 75 0 0.0 0.0 0.00 0.00 0.00 87 1014.0
20260906091503 75 0 0.0 0.0 0.00 0.00 0.00 86 1014.0
20260906091203 75 0 0.0 0.0 0.00 0.00 0.00 86 1013.9
20260906090903 75 0 0.0 0.0 0.00 0.00 0.00 86 1013.9
20260906090604 75 0 0.0 0.0 0.00 0.00 0.00 86 1013.9
20260906090303 75 0 0.0 0.0 0.00 0.00 0.00 86 1013.9
20260906090003 75 0 0.0 0.0 0.00 0.00 0.00 86 1013.9
20260906085703 75 0 0.0 0.0 0.00 0.00 0.00 86 1013.8
20260906085403 76 0 0.0 0.0 0.00 0.00 0.00 86 1013.9
20260906085104 76 0 0.0 0.0 0.00 0.00 0.00 85 1013.8
20260906084803 76 0 0.0 0.0 0.00 0.00 0.00 85 1013.7
20260906084718 76 0 0.0 0.0 0.00 0.00 0.00 85 1013.8
20260906084203 76 0 0.0 0.0 0.00 0.00 0.00 85 1013.7
20260906084117 76 0 0.0 0.0 0.00 0.00 0.00 85 1013.7
20260906083603 76 0 0.0 0.0 0.00 0.00 0.00 85 1013.6
20260906083303 76 0 0.0 0.0 0.00 0.00 0.00 85 1013.7
20260906083003 76 0 0.0 0.0 0.00 0.00 0.00 84 1013.6
20260906082916 76 0 0.0 0.0 0.00 0.00 0.00 84 1013.6
20260906082403 76 0 0.0 0.0 0.00 0.00 0.00 84 1013.6
20260906082103 76 0 0.0 0.0 0.00 0.00 0.00 84 1013.7
20260906081803 76 0 0.0 0.0 0.00 0.00 0.00 83 1013.7
20260906081503 76 0 0.0 0.0 0.00 0.00 0.00 83 1013.7
20260906081203 77 0 0.0 0.0 0.00 0.00 0.00 83 1013.7
20260906080903 77 0 0.0 0.0 0.00 0.00 0.00 83 1013.8
20260906080603 77 0 0.0 0.0 0.00 0.00 0.00 82 1013.8
20260906080519 77 0 0.0 0.0 0.00 0.00 0.00 82 1013.8
20260906080003 77 0 0.0 0.0 0.00 0.00 0.00 82 1013.7
20260906075703 77 0 0.0 0.0 0.00 0.00 0.00 82 1013.7
20260906075403 78 0 0.0 0.0 0.00 0.00 0.00 81 1013.8
20260906075103 78 0 0.0 0.0 0.00 0.00 0.00 81 1013.7
20260906075017 78 0 0.0 0.0 0.00 0.00 0.00 81 1013.7
20260906074503 78 0 0.0 0.0 0.00 0.00 0.00 81 1013.7
20260906074203 78 0 0.0 0.0 0.00 0.00 0.00 81 1013.6
20260906073903 78 0 0.0 0.0 0.00 0.00 0.00 81 1013.6
20260906073816 78 0 0.0 0.0 0.00 0.00 0.00 81 1013.6
20260906073303 78 0 0.0 0.0 0.00 0.00 0.00 81 1013.6
20260906073003 78 0 0.0 0.0 0.00 0.00 0.00 81 1013.6
20260906072703 78 0 0.0 0.0 0.00 0.00 0.00 81 1013.6
20260906072403 78 0 0.0 0.0 0.00 0.00 0.00 81 1013.7
20260906072103 78 0 0.0 0.0 0.00 0.00 0.00 80 1013.7
20260906071803 78 0 0.0 0.0 0.00 0.00 0.00 80 1013.6
20260906071503 78 0 0.0 0.0 0.00 0.00 0.00 80 1013.7
20260906071203 78 0 0.0 0.0 0.00 0.00 0.00 80 1013.7
20260906070903 78 0 0.0 0.0 0.00 0.00 0.00 80 1013.7
20260906070603 78 0 0.0 0.0 0.00 0.00 0.00 80 1013.7
20260906070303 78 0 0.0 0.0 0.00 0.00 0.00 79 1013.7
20260906070218 78 0 0.0 0.0 0.00 0.00 0.00 79 1013.7
20260906065704 79 0 0.0 0.0 0.00 0.00 0.00 79 1013.7
20260906065403 79 0 0.0 0.0 0.00 0.00 0.00 79 1013.7
20260906065103 79 0 0.0 0.0 0.00 0.00 0.00 79 1013.8
20260906065017 79 0 0.0 0.0 0.00 0.00 0.00 79 1013.8
20260906064503 79 0 0.0 0.0 0.00 0.00 0.00 78 1013.8
20260906064203 79 0 0.0 0.0 0.00 0.00 0.00 78 1013.7
20260906063903 79 0 0.0 0.0 0.00 0.00 0.00 79 1013.8
20260906063818 79 0 0.0 0.0 0.00 0.00 0.00 79 1013.7
20260906063303 79 0 0.0 0.0 0.00 0.00 0.00 78 1013.8
20260906063003 79 0 0.0 0.0 0.00 0.00 0.00 78 1013.8
20260906062703 80 0 0.0 0.0 0.00 0.00 0.00 78 1013.8
20260906062403 80 0 0.0 0.0 0.00 0.00 0.00 77 1013.8
20260906062103 80 0 0.0 0.0 0.00 0.00 0.00 77 1013.8
20260906062017 80 0 0.0 0.0 0.00 0.00 0.00 77 1013.9
20260906061503 80 0 0.0 0.0 0.00 0.00 0.00 77 1014.0
20260906061203 80 0 0.0 0.0 0.00 0.00 0.00 76 1014.0
20260906060903 80 0 0.0 0.0 0.00 0.00 0.00 76 1014.0
20260906060603 80 0 0.0 0.0 0.00 0.00 0.00 76 1014.1
20260906060303 81 0 0.0 0.0 0.00 0.00 0.00 76 1014.1
20260906060217 81 0 0.0 0.0 0.00 0.00 0.00 76 1014.2
20260906055703 81 0 0.0 0.0 0.00 0.00 0.00 75 1014.2
20260906055403 81 0 0.0 0.0 0.00 0.00 0.00 75 1014.1
20260906055103 81 0 0.0 0.0 0.00 0.00 0.00 74 1014.1
20260906054803 81 0 0.0 0.0 0.00 0.00 0.00 74 1014.2
20260906054503 82 0 0.0 0.0 0.00 0.00 0.00 74 1014.2
20260906054203 82 0 0.0 0.0 0.00 0.00 0.00 74 1014.3
20260906053903 82 0 0.0 0.0 0.00 0.00 0.00 74 1014.3
20260906053603 82 0 0.0 0.0 0.00 0.00 0.00 73 1014.3
20260906053518 82 0 0.0 0.0 0.00 0.00 0.00 73 1014.3
20260906053003 82 0 0.0 0.0 0.00 0.00 0.00 72 1014.3
20260906052703 82 0 0.0 0.0 0.00 0.00 0.00 72 1014.3
20260906052403 82 0 0.0 0.0 0.00 0.00 0.00 72 1014.2
20260906052103 82 0 0.0 0.0 0.00 0.00 0.00 71 1014.3
20260906051804 82 0 0.0 0.0 0.00 0.00 0.00 71 1014.2
20260906051716 82 0 0.0 0.0 0.00 0.00 0.00 71 1014.2
20260906051418 82 0 0.0 0.0 0.00 0.00 0.00 71 1014.2
20260906051118 82 0 0.0 0.0 0.00 0.00 0.00 71 1014.1
20260906050603 83 0 0.0 0.0 0.00 0.00 0.00 70 1014.1
20260906050517 83 0 0.0 0.0 0.00 0.00 0.00 70 1014.1
20260906050004 83 0 0.0 0.0 0.00 0.00 0.00 70 1014.1
20260906045703 83 0 0.0 0.0 0.00 0.00 0.00 70 1014.1
20260906045403 83 0 0.0 0.0 0.00 0.00 0.00 70 1014.2
20260906045103 83 0 0.0 0.0 0.00 0.00 0.00 70 1014.2
20260906044803 83 0 0.0 0.0 0.00 0.00 0.00 70 1014.2
20260906044503 83 0 0.0 0.0 0.00 0.00 0.00 70 1014.1
20260906044203 83 0 0.0 0.0 0.00 0.00 0.00 70 1014.1
20260906043903 83 0 0.0 0.0 0.00 0.00 0.00 70 1014.1
20260906043603 83 0 0.0 0.0 0.00 0.00 0.00 70 1014.1
20260906043517 83 0 0.0 0.0 0.00 0.00 0.00 70 1014.1
20260906043003 83 0 0.0 0.0 0.00 0.00 0.00 69 1014.0
20260906042703 84 0 0.0 0.0 0.00 0.00 0.00 69 1014.1
20260906042403 84 0 0.0 0.0 0.00 0.00 0.00 69 1014.0
20260906042103 84 0 0.0 0.0 0.00 0.00 0.00 69 1014.0
20260906041803 84 0 0.0 0.0 0.00 0.00 0.00 69 1014.0
20260906041718 84 0 0.0 0.0 0.00 0.00 0.00 69 1014.0
20260906041203 84 0 0.0 0.0 0.00 0.00 0.00 69 1014.0
20260906040903 84 0 0.0 0.0 0.00 0.00 0.00 69 1014.0
20260906040603 84 0 0.0 0.0 0.00 0.00 0.00 68 1014.0
20260906040303 84 0 0.0 0.0 0.00 0.00 0.00 68 1013.9
20260906040003 84 0 0.0 0.0 0.00 0.00 0.00 68 1013.9
20260906035703 84 0 0.0 0.0 0.00 0.00 0.00 68 1013.9
20260906035403 84 0 0.0 0.0 0.00 0.00 0.00 68 1013.9
20260906035103 84 0 0.0 0.0 0.00 0.00 0.00 68 1013.9
20260906034803 84 0 0.0 0.0 0.00 0.00 0.00 68 1013.9
20260906034717 84 0 0.0 0.0 0.00 0.00 0.00 68 1013.9
20260906034203 85 0 0.0 0.0 0.00 0.00 0.00 68 1013.9
20260906033903 85 0 0.0 0.0 0.00 0.00 0.00 68 1013.8
20260906033603 85 0 0.0 0.0 0.00 0.00 0.00 67 1013.7
20260906033303 85 0 0.0 0.0 0.00 0.00 0.00 67 1013.6
20260906033003 85 168 0.0 1.0 0.00 0.00 0.00 67 1013.7
20260906032703 85 168 0.0 1.0 0.00 0.00 0.00 67 1013.6
20260906032403 85 168 0.0 1.0 0.00 0.00 0.00 67 1013.6
20260906032318 85 168 0.0 1.0 0.00 0.00 0.00 67 1013.7
20260906031803 85 0 0.0 0.0 0.00 0.00 0.00 66 1013.7
20260906031503 86 0 0.0 0.0 0.00 0.00 0.00 66 1013.7
20260906031417 86 0 0.0 0.0 0.00 0.00 0.00 66 1013.7
20260906030903 86 162 0.0 1.0 0.00 0.00 0.00 65 1013.6
20260906030603 86 162 0.0 1.0 0.00 0.00 0.00 65 1013.6
20260906030516 86 162 0.0 1.0 0.00 0.00 0.00 65 1013.5
20260906030216 86 0 0.0 0.0 0.00 0.00 0.00 65 1013.5
20260906025703 87 161 0.0 2.0 0.00 0.00 0.00 64 1013.3
20260906025403 87 164 0.0 2.0 0.00 0.00 0.00 63 1013.3
20260906025318 87 164 0.0 2.0 0.00 0.00 0.00 63 1013.3
20260906024803 87 167 0.0 2.0 0.00 0.00 0.00 63 1013.3
20260906024717 87 167 0.0 2.0 0.00 0.00 0.00 62 1013.2
20260906024203 87 167 0.0 1.0 0.00 0.00 0.00 62 1013.1
20260906023903 87 167 0.0 1.0 0.00 0.00 0.00 62 1013.1
20260906023603 87 0 0.0 0.0 0.00 0.00 0.00 62 1013.1
20260906023303 87 0 0.0 0.0 0.00 0.00 0.00 62 1013.0
20260906023218 87 0 0.0 0.0 0.00 0.00 0.00 62 1013.0
20260906022703 87 0 0.0 0.0 0.00 0.00 0.00 62 1012.9
20260906022403 87 0 0.0 0.0 0.00 0.00 0.00 62 1012.9
20260906022103 87 169 0.0 1.0 0.00 0.00 0.00 62 1012.8
20260906021803 87 169 0.0 1.0 0.00 0.00 0.00 62 1012.8
20260906021503 87 169 0.0 1.0 0.00 0.00 0.00 61 1012.7
20260906021417 87 169 0.0 1.0 0.00 0.00 0.00 62 1012.7
20260906020903 87 0 0.0 0.0 0.00 0.00 0.00 61 1012.6
20260906020603 88 0 0.0 0.0 0.00 0.00 0.00 61 1012.5
20260906020303 88 0 0.0 0.0 0.00 0.00 0.00 62 1012.6
20260906020003 88 0 0.0 0.0 0.00 0.00 0.00 61 1012.5
20260906015918 88 0 0.0 0.0 0.00 0.00 0.00 61 1012.5
20260906015403 88 0 0.0 0.0 0.00 0.00 0.00 60 1012.4
20260906015103 88 0 0.0 0.0 0.00 0.00 0.00 59 1012.4
20260906014803 88 0 0.0 0.0 0.00 0.00 0.00 59 1012.3
20260906014503 89 0 0.0 0.0 0.00 0.00 0.00 59 1012.2
20260906014203 89 0 0.0 0.0 0.00 0.00 0.00 59 1012.2
20260906013903 89 0 0.0 0.0 0.00 0.00 0.00 58 1012.2
20260906013603 90 0 0.0 0.0 0.00 0.00 0.00 58 1012.2
20260906013518 90 0 0.0 0.0 0.00 0.00 0.00 57 1012.2
20260906013003 90 0 0.0 0.0 0.00 0.00 0.00 55 1012.1
20260906012703 90 0 0.0 0.0 0.00 0.00 0.00 56 1012.1
20260906012617 90 0 0.0 0.0 0.00 0.00 0.00 55 1012.1
20260906012103 90 0 0.0 0.0 0.00 0.00 0.00 55 1012.0
20260906011803 90 0 0.0 0.0 0.00 0.00 0.00 55 1012.0
20260906011503 90 0 0.0 0.0 0.00 0.00 0.00 55 1012.0
20260906011203 91 0 0.0 0.0 0.00 0.00 0.00 54 1012.0
20260906010903 91 0 0.0 0.0 0.00 0.00 0.00 54 1011.9
20260906010603 91 0 0.0 0.0 0.00 0.00 0.00 54 1011.9
20260906010303 92 0 0.0 0.0 0.00 0.00 0.00 53 1011.9
20260906010003 92 0 0.0 0.0 0.00 0.00 0.00 53 1011.8
20260906005703 92 0 0.0 0.0 0.00 0.00 0.00 52 1011.8
20260906005403 92 0 0.0 0.0 0.00 0.00 0.00 51 1011.8
20260906005103 92 0 0.0 0.0 0.00 0.00 0.00 51 1011.8
20260906004803 92 0 0.0 0.0 0.00 0.00 0.00 51 1011.8
20260906004503 93 0 0.0 0.0 0.00 0.00 0.00 51 1011.9
20260906004203 93 0 0.0 0.0 0.00 0.00 0.00 51 1011.8
20260906003903 94 0 0.0 0.0 0.00 0.00 0.00 51 1011.8
20260906003603 94 0 0.0 0.0 0.00 0.00 0.00 50 1011.8
20260906003303 94 169 0.0 1.0 0.00 0.00 0.00 49 1011.8
20260906003003 94 169 0.0 1.0 0.00 0.00 0.00 48 1011.9
20260906002917 94 169 0.0 1.0 0.00 0.00 0.00 48 1011.9
20260906002403 95 169 0.0 1.0 0.00 0.00 0.00 47 1011.8
20260906002103 95 0 0.0 0.0 0.00 0.00 0.00 47 1011.9
20260906001803 95 0 0.0 0.0 0.00 0.00 0.00 46 1011.9
20260906001503 96 0 0.0 0.0 0.00 0.00 0.00 46 1011.9
20260906001203 96 0 0.0 0.0 0.00 0.00 0.00 46 1011.9
20260906000903 96 0 0.0 0.0 0.00 0.00 0.00 46 1011.9
20260906000603 96 169 0.0 1.0 0.00 0.00 0.00 45 1011.9
20260906000303 96 169 0.0 1.0 0.00 0.00 0.00 45 1012.0
20260906000003 97 162 0.0 2.0 0.00 0.00 0.00 45 1012.0
20260905235703 97 155 0.0 2.0 0.00 0.00 0.00 45 1012.0
20260905235403 97 155 0.0 2.0 0.00 0.00 0.00 45 1012.0
20260905235317 97 154 0.0 2.0 0.00 0.00 0.00 44 1012.0
20260905235016 98 155 0.0 2.0 0.00 0.00 0.00 44 1011.9
20260905234503 98 149 0.0 4.0 0.00 0.00 0.00 43 1011.9
20260905234203 98 151 0.0 4.0 0.00 0.00 0.00 43 1011.9
20260905233903 98 151 1.0 4.0 0.00 0.00 0.00 42 1011.9
20260905233603 98 155 1.0 2.0 0.00 0.00 0.00 42 1011.8
20260905233517 98 155 1.0 2.0 0.00 0.00 0.00 42 1011.8
20260905233003 99 152 2.0 4.0 0.00 0.00 0.00 42 1011.8
20260905232703 99 153 2.0 4.0 0.00 0.00 0.00 42 1011.8
20260905232617 99 152 2.0 4.0 0.00 0.00 0.00 42 1011.8
20260905232103 99 153 2.0 5.0 0.00 0.00 0.00 41 1011.8
20260905231803 99 157 2.0 5.0 0.00 0.00 0.00 41 1011.8
20260905231503 100 156 2.0 5.0 0.00 0.00 0.00 40 1011.8
20260905231203 100 157 2.0 5.0 0.00 0.00 0.00 40 1011.9
20260905230903 100 146 2.0 6.0 0.00 0.00 0.00 40 1011.9
20260905230603 100 149 2.0 6.0 0.00 0.00 0.00 39 1012.0
20260905230303 101 148 2.0 6.0 0.00 0.00 0.00 39 1012.0
20260905230003 102 149 1.0 6.0 0.00 0.00 0.00 38 1011.9
20260905225703 102 145 1.0 6.0 0.00 0.00 0.00 38 1012.0
20260905225403 102 145 1.0 6.0 0.00 0.00 0.00 39 1011.9
20260905225103 103 156 0.0 6.0 0.00 0.00 0.00 37 1011.9
20260905224803 103 177 0.0 3.0 0.00 0.00 0.00 38 1011.9
20260905224503 103 167 0.0 3.0 0.00 0.00 0.00 38 1011.9
20260905224203 102 175 1.0 4.0 0.00 0.00 0.00 38 1011.8
20260905223903 102 175 1.0 4.0 0.00 0.00 0.00 39 1011.9
20260905223603 102 180 1.0 4.0 0.00 0.00 0.00 39 1011.9
20260905223303 102 191 1.0 4.0 0.00 0.00 0.00 39 1011.9
20260905223003 102 187 1.0 4.0 0.00 0.00 0.00 38 1011.9
20260905222918 102 187 1.0 4.0 0.00 0.00 0.00 38 1012.0
20260905222618 103 185 1.0 3.0 0.00 0.00 0.00 38 1011.9
20260905222103 103 176 1.0 3.0 0.00 0.00 0.00 37 1011.9
20260905221803 103 157 0.0 2.0 0.00 0.00 0.00 37 1011.9
20260905221503 103 151 0.0 3.0 0.00 0.00 0.00 38 1011.9
20260905221417 102 151 0.0 3.0 0.00 0.00 0.00 38 1011.9
20260905220903 102 188 1.0 3.0 0.00 0.00 0.00 38 1012.0
20260905220603 103 189 0.0 3.0 0.00 0.00 0.00 38 1012.0
20260905220303 102 159 1.0 7.0 0.00 0.00 0.00 38 1012.0
20260905220003 102 144 2.0 7.0 0.00 0.00 0.00 38 1011.9
20260905215703 101 138 2.0 7.0 0.00 0.00 0.00 39 1011.9
20260905215403 101 137 3.0 7.0 0.00 0.00 0.00 38 1012.0
20260905215103 102 144 3.0 6.0 0.00 0.00 0.00 38 1012.0
20260905214803 102 146 3.0 6.0 0.00 0.00 0.00 38 1012.1
20260905214503 102 149 2.0 6.0 0.00 0.00 0.00 38 1012.1
20260905214203 103 148 2.0 6.0 0.00 0.00 0.00 37 1012.1
20260905213903 103 150 1.0 4.0 0.00 0.00 0.00 38 1012.1
20260905213603 103 153 1.0 5.0 0.00 0.00 0.00 38 1012.1
20260905213303 103 162 0.0 5.0 0.00 0.00 0.00 38 1012.2
20260905213218 103 165 0.0 5.0 0.00 0.00 0.00 38 1012.2
20260905212918 103 169 0.0 5.0 0.00 0.00 0.00 38 1012.2
20260905212403 103 144 0.0 3.0 0.00 0.00 0.00 39 1012.4
20260905212103 103 146 1.0 3.0 0.00 0.00 0.00 39 1012.4
20260905211803 103 151 1.0 4.0 0.00 0.00 0.00 38 1012.5
20260905211717 103 151 1.0 4.0 0.00 0.00 0.00 38 1012.5
20260905211203 104 181 1.0 4.0 0.00 0.00 0.00 38 1012.5
20260905210903 103 195 1.0 5.0 0.00 0.00 0.00 38 1012.5
20260905210603 103 188 2.0 6.0 0.00 0.00 0.00 38 1012.5
20260905210518 102 188 2.0 6.0 0.00 0.00 0.00 39 1012.5
20260905210003 103 185 1.0 6.0 0.00 0.00 0.00 38 1012.5
20260905205703 104 198 0.0 3.0 0.00 0.00 0.00 38 1012.6
20260905205618 104 200 0.0 3.0 0.00 0.00 0.00 38 1012.6
20260905205103 103 202 1.0 3.0 0.00 0.00 0.00 38 1012.6
20260905204803 102 200 1.0 3.0 0.00 0.00 0.00 39 1012.7
20260905204717 102 200 1.0 3.0 0.00 0.00 0.00 39 1012.7
20260905204203 101 199 1.0 4.0 0.00 0.00 0.00 40 1012.8
20260905203903 101 203 2.0 4.0 0.00 0.00 0.00 40 1012.8
20260905203603 100 205 1.0 4.0 0.00 0.00 0.00 41 1012.9
20260905203303 99 208 2.0 4.0 0.00 0.00 0.00 42 1012.9
20260905203003 99 207 2.0 6.0 0.00 0.00 0.00 42 1013.0
20260905202703 99 227 3.0 6.0 0.00 0.00 0.00 42 1013.0
20260905202618 99 227 3.0 6.0 0.00 0.00 0.00 42 1013.0
20260905202103 99 240 3.0 6.0 0.00 0.00 0.00 43 1013.2
20260905201803 99 240 2.0 6.0 0.00 0.00 0.00 42 1013.2
20260905201503 99 215 1.0 6.0 0.00 0.00 0.00 44 1013.2
20260905201203 98 174 1.0 5.0 0.00 0.00 0.00 44 1013.2
20260905200903 98 174 1.0 5.0 0.00 0.00 0.00 44 1013.3
20260905200603 98 202 2.0 7.0 0.00 0.00 0.00 44 1013.3
20260905200303 98 218 2.0 7.0 0.00 0.00 0.00 45 1013.3
20260905200003 99 213 2.0 7.0 0.00 0.00 0.00 43 1013.3
20260905195917 99 213 2.0 7.0 0.00 0.00 0.00 43 1013.3
20260905195403 99 205 2.0 5.0 0.00 0.00 0.00 43 1013.5
20260905195317 99 203 2.0 5.0 0.00 0.00 0.00 44 1013.5
20260905194803 99 206 2.0 5.0 0.00 0.00 0.00 43 1013.5
20260905194503 99 206 2.0 6.0 0.00 0.00 0.00 44 1013.5
20260905194203 99 199 2.0 6.0 0.00 0.00 0.00 43 1013.6
20260905193903 100 200 2.0 6.0 0.00 0.00 0.00 43 1013.6
20260905193603 100 202 2.0 6.0 0.00 0.00 0.00 42 1013.7
20260905193303 101 203 2.0 4.0 0.00 0.00 0.00 42 1013.7
20260905193218 101 203 1.0 4.0 0.00 0.00 0.00 42 1013.7
20260905192703 101 188 1.0 4.0 0.00 0.00 0.00 41 1013.8
20260905192403 101 173 1.0 2.0 0.00 0.00 0.00 41 1013.8
20260905192103 101 186 1.0 6.0 0.00 0.00 0.00 41 1013.8
20260905191803 101 166 2.0 6.0 0.00 0.00 0.00 42 1013.8
20260905191503 101 173 2.0 6.0 0.00 0.00 0.00 41 1013.9
20260905191203 101 170 1.0 6.0 0.00 0.00 0.00 41 1013.9
20260905190903 102 177 1.0 5.0 0.00 0.00 0.00 41 1013.9
20260905190818 102 182 1.0 5.0 0.00 0.00 0.00 40 1013.9
20260905190303 103 173 1.0 4.0 0.00 0.00 0.00 40 1014.0
20260905190217 103 174 1.0 4.0 0.00 0.00 0.00 39 1014.0
20260905185917 104 169 1.0 4.0 0.00 0.00 0.00 38 1014.1
20260905185403 103 153 0.0 3.0 0.00 0.00 0.00 40 1014.1
20260905185317 103 153 0.0 3.0 0.00 0.00 0.00 41 1014.1
20260905184803 104 203 0.0 3.0 0.00 0.00 0.00 39 1014.2
20260905184503 102 210 1.0 4.0 0.00 0.00 0.00 41 1014.2
20260905184203 101 220 1.0 8.0 0.00 0.00 0.00 41 1014.3
20260905184118 101 219 1.0 8.0 0.00 0.00 0.00 41 1014.3
20260905183603 101 219 2.0 8.0 0.00 0.00 0.00 41 1014.4
20260905183303 100 204 1.0 4.0 0.00 0.00 0.00 44 1014.4
20260905183217 100 202 1.0 4.0 0.00 0.00 0.00 44 1014.4
20260905182703 99 212 2.0 6.0 0.00 0.00 0.00 45 1014.5
20260905182403 98 208 2.0 6.0 0.00 0.00 0.00 45 1014.5
20260905182103 99 214 2.0 6.0 0.00 0.00 0.00 44 1014.6
20260905181803 100 197 1.0 5.0 0.00 0.00 0.00 42 1014.7
20260905181503 100 173 0.0 2.0 0.00 0.00 0.00 42 1014.8
20260905181203 100 172 0.0 2.0 0.00 0.00 0.00 43 1014.8